TimeEDT,TemperatureF,Dew PointF,Humidity,Sea Level PressureIn,VisibilityMPH,Wind Direction,Wind SpeedMPH,Gust SpeedMPH,PrecipitationIn,Events,Conditions,WindDirDegrees,DateUTC
12:15 AM,55.6,52.2,88,30.16,10.0,WNW,4.6,-,N/A,,Clear,300,2013-07-30 04:15:00
12:36 AM,55.4,52.3,89,30.17,10.0,West,3.5,-,N/A,,Clear,280,2013-07-30 04:36:00
12:55 AM,54.0,51.3,91,30.17,10.0,NNW,3.5,-,N/A,,Clear,340,2013-07-30 04:55:00
1:15 AM,54.0,51.6,92,30.17,10.0,Calm,Calm,-,N/A,,Clear,0,2013-07-30 05:15:00
1:36 AM,53.8,51.4,92,30.17,10.0,NNE,3.5,-,N/A,,Clear,30,2013-07-30 05:36:00
1:55 AM,54.5,52.0,91,30.17,10.0,Calm,Calm,-,N/A,,Clear,0,2013-07-30 05:55:00
2:15 AM,54.3,51.8,91,30.17,10.0,Calm,Calm,-,N/A,,Clear,0,2013-07-30 06:15:00
2:36 AM,54.5,52.0,91,30.17,10.0,Calm,Calm,-,N/A,,Clear,0,2013-07-30 06:36:00
2:55 AM,55.0,52.7,92,30.17,10.0,Calm,Calm,-,N/A,,Clear,0,2013-07-30 06:55:00
3:15 AM,54.5,51.8,91,30.17,10.0,Calm,Calm,-,N/A,,Clear,0,2013-07-30 07:15:00
3:35 AM,54.3,51.3,89,30.17,10.0,Calm,Calm,-,N/A,,Clear,0,2013-07-30 07:35:00
3:55 AM,54.5,51.6,90,30.17,10.0,Calm,Calm,-,N/A,,Clear,0,2013-07-30 07:55:00
4:15 AM,54.7,51.4,89,30.17,10.0,Calm,Calm,-,N/A,,Clear,0,2013-07-30 08:15:00
4:35 AM,53.8,50.9,90,30.17,10.0,Calm,Calm,-,N/A,,Clear,0,2013-07-30 08:35:00
4:55 AM,54.0,50.9,89,30.17,10.0,Calm,Calm,-,N/A,,Clear,0,2013-07-30 08:55:00
5:16 AM,53.1,50.2,90,30.17,10.0,Calm,Calm,-,N/A,,Clear,0,2013-07-30 09:16:00
5:35 AM,53.8,50.7,89,30.17,10.0,Calm,Calm,-,N/A,,Clear,0,2013-07-30 09:35:00
5:55 AM,54.0,50.4,88,30.17,10.0,South,3.5,-,N/A,,Clear,180,2013-07-30 09:55:00
6:16 AM,54.0,50.2,87,30.17,10.0,South,5.8,-,N/A,,Clear,180,2013-07-30 10:16:00
6:35 AM,54.1,51.1,89,30.18,10.0,SSW,4.6,-,N/A,,Clear,200,2013-07-30 10:35:00
6:55 AM,54.7,52.0,91,30.19,10.0,WSW,5.8,-,N/A,,Clear,240,2013-07-30 10:55:00
7:16 AM,56.3,53.6,91,30.19,10.0,WSW,4.6,-,N/A,,Clear,250,2013-07-30 11:16:00
7:35 AM,58.8,56.1,91,30.19,10.0,SSW,3.5,-,N/A,,Clear,200,2013-07-30 11:35:00
7:56 AM,62.4,59.5,90,30.20,10.0,SSW,4.6,-,N/A,,Clear,210,2013-07-30 11:56:00
8:15 AM,63.7,60.3,89,30.20,10.0,SSW,4.6,-,N/A,,Scattered Clouds,210,2013-07-30 12:15:00
8:35 AM,64.4,60.6,88,30.20,10.0,SW,4.6,-,N/A,,Scattered Clouds,230,2013-07-30 12:35:00
8:56 AM,64.8,60.6,86,30.20,10.0,SSW,4.6,-,N/A,,Mostly Cloudy,210,2013-07-30 12:56:00
9:15 AM,64.6,60.6,87,30.21,10.0,SSW,6.9,-,N/A,,Overcast,200,2013-07-30 13:15:00
9:35 AM,64.9,60.4,85,30.20,10.0,SSW,6.9,-,N/A,,Overcast,200,2013-07-30 13:35:00
9:56 AM,65.8,60.6,83,30.20,10.0,SSW,4.6,-,N/A,,Mostly Cloudy,210,2013-07-30 13:56:00
10:15 AM,65.1,60.4,85,30.21,10.0,WSW,3.5,-,N/A,,Mostly Cloudy,240,2013-07-30 14:15:00
10:35 AM,66.0,60.3,82,30.20,10.0,WSW,6.9,-,N/A,,Overcast,250,2013-07-30 14:35:00
10:56 AM,65.5,60.3,83,30.20,10.0,WSW,3.5,-,N/A,,Overcast,250,2013-07-30 14:56:00
11:15 AM,66.2,60.6,82,30.20,10.0,SW,4.6,-,N/A,,Overcast,230,2013-07-30 15:15:00
11:35 AM,66.2,60.1,81,30.20,10.0,Calm,Calm,-,N/A,,Overcast,0,2013-07-30 15:35:00
11:56 AM,67.8,60.1,76,30.21,10.0,WSW,11.5,16.1,N/A,,Overcast,240,2013-07-30 15:56:00
12:15 PM,67.3,59.9,77,30.20,10.0,SW,5.8,-,N/A,,Overcast,230,2013-07-30 16:15:00
12:35 PM,67.3,60.3,78,30.20,10.0,SW,4.6,-,N/A,,Scattered Clouds,230,2013-07-30 16:35:00
12:56 PM,67.6,60.1,77,30.20,10.0,WSW,8.1,-,N/A,,Clear,240,2013-07-30 16:56:00
1:15 PM,66.7,60.1,79,30.20,10.0,WSW,11.5,20.7,N/A,,Mostly Cloudy,240,2013-07-30 17:15:00
1:35 PM,68.7,59.9,73,30.20,10.0,SW,6.9,20.7,N/A,,Mostly Cloudy,230,2013-07-30 17:35:00
1:56 PM,68.9,59.4,72,30.19,10.0,SW,8.1,-,N/A,,Scattered Clouds,220,2013-07-30 17:56:00
2:05 PM,68.7,59.0,71,30.18,10.0,SSW,4.6,-,N/A,,Clear,210,2013-07-30 18:05:00
2:25 PM,69.8,59.0,68,30.17,10.0,SSW,5.8,-,N/A,,Clear,210,2013-07-30 18:25:00
2:45 PM,69.8,59.0,68,30.17,10.0,WSW,11.5,18.4,N/A,,Scattered Clouds,240,2013-07-30 18:45:00
3:05 PM,68.0,59.0,73,30.17,10.0,WSW,13.8,19.6,N/A,,Mostly Cloudy,240,2013-07-30 19:05:00
3:25 PM,68.0,57.2,68,30.17,10.0,WSW,13.8,20.7,N/A,,Overcast,250,2013-07-30 19:25:00
4:05 PM,68.0,57.2,68,30.16,10.0,WSW,9.2,-,N/A,,Overcast,240,2013-07-30 20:05:00
4:25 PM,68.0,57.2,68,30.15,10.0,WSW,11.5,16.1,N/A,,Overcast,240,2013-07-30 20:25:00
4:45 PM,68.0,57.2,68,30.15,10.0,WSW,6.9,-,N/A,,Overcast,240,2013-07-30 20:45:00
5:05 PM,68.0,59.0,73,30.14,10.0,WSW,9.2,-,N/A,,Overcast,240,2013-07-30 21:05:00
5:25 PM,69.8,59.0,68,30.14,10.0,WSW,5.8,-,N/A,,Overcast,240,2013-07-30 21:25:00
5:45 PM,69.8,57.2,64,30.14,10.0,West,10.4,-,N/A,,Overcast,260,2013-07-30 21:45:00
6:05 PM,69.8,57.2,64,30.14,10.0,WSW,11.5,-,N/A,,Mostly Cloudy,250,2013-07-30 22:05:00
6:25 PM,69.8,55.4,60,30.13,10.0,WSW,4.6,-,N/A,,Scattered Clouds,250,2013-07-30 22:25:00
6:45 PM,69.8,55.4,60,30.13,10.0,WSW,9.2,-,N/A,,Clear,250,2013-07-30 22:45:00
7:05 PM,69.8,55.4,60,30.13,10.0,West,9.2,-,N/A,,Clear,270,2013-07-30 23:05:00
7:25 PM,69.8,55.4,60,30.13,10.0,West,8.1,-,N/A,,Clear,270,2013-07-30 23:25:00
7:45 PM,68.0,55.4,64,30.13,10.0,West,6.9,-,N/A,,Clear,280,2013-07-30 23:45:00
8:05 PM,68.0,55.4,64,30.13,10.0,West,5.8,-,N/A,,Clear,280,2013-07-31 00:05:00
8:25 PM,68.0,55.4,64,30.13,10.0,West,5.8,-,N/A,,Clear,280,2013-07-31 00:25:00
8:45 PM,66.2,55.4,68,30.12,10.0,WNW,4.6,-,N/A,,Scattered Clouds,290,2013-07-31 00:45:00
9:05 PM,66.2,57.2,73,30.12,10.0,WNW,4.6,-,N/A,,Scattered Clouds,290,2013-07-31 01:05:00
9:25 PM,64.4,57.2,77,30.12,10.0,WNW,4.6,-,N/A,,Scattered Clouds,290,2013-07-31 01:25:00
9:45 PM,62.6,57.2,82,30.12,10.0,WNW,3.5,-,N/A,,Scattered Clouds,290,2013-07-31 01:45:00
10:05 PM,60.8,57.2,88,30.12,10.0,WNW,3.5,-,N/A,,Clear,290,2013-07-31 02:05:00
10:25 PM,60.8,55.4,82,30.12,10.0,West,3.5,-,N/A,,Scattered Clouds,280,2013-07-31 02:25:00
10:45 PM,60.8,55.4,82,30.11,10.0,West,3.5,-,N/A,,Mostly Cloudy,260,2013-07-31 02:45:00
11:05 PM,60.8,55.4,82,30.11,10.0,WSW,3.5,-,N/A,,Overcast,240,2013-07-31 03:05:00
11:25 PM,60.8,55.4,82,30.11,10.0,Calm,Calm,-,N/A,,Mostly Cloudy,0,2013-07-31 03:25:00
11:45 PM,60.8,53.6,77,30.11,10.0,South,4.6,-,N/A,,Mostly Cloudy,170,2013-07-31 03:45:00